FLOCK 3P-25 (41964 NORAD) Tracking and Keplerian Element Data

This shows tracking and keplerian element data for the satellite.

Feedback or suggestion? Click here.




ElementValue
Catalog41964
NameFLOCK 3P-25
Epoch Orbit5529
Epoch Day45.85244031
Epoch Year2018
RAAN111.3012
Inclination97.4651
Eccentricity0.0009959
Argument of Perigee67.0946
Mean Anonmoly293.1342
Mean Motion15.23937598
Decay Rate1.572E-05
L11 41964U 17008S 18045.85244031 .00001572 00000-0 67962-4 0 9994
L22 41964 97.4651 111.3012 0009959 67.0946 293.1342 15.23937598 55298

Live tracking and technical data element details for FLOCK 3P-25 (NORAD 41964). FLOCK 3P-25 can be tracked NOW for your location showing map with azimuth and elevation plus other details from your city location.

Track the satellite on the map from your city or location and see movement details for azimuth, elevation, latitude, longitude, range, height, and movement on the map or in text.







IsCatalogInMostPopularTable: catalog: 41964, numindb: 131
Update: records affected: 1



GetName: 41964 FLOCK 3P-25

Hit Count: updated at: Fri, 16 Nov 2018 03:27:13 GMT